Location: Bemmer
(51.5498°N, 5.6249°E)
Time: 03:05:00
(UTC+00:00)

Cosmos 1633 Rocket - Pass Details

Date: 03 March 2021
Orbit: 606 x 624 km, 82.5° (Epoch: 13 April)

Event Time Altitude Azimuth Distance (km) Brightness Sun altitude
Rises 17:57:13 0° 177° (S) 2,893 6.5 -6.3°
Reaches altitude 10° 17:59:28 10° 174° (S) 1,993 5.6 -6.7°
Maximum altitude 18:03:48 58° 95° (E) 732 3.1 -7.4°
Drops below altitude 10° 18:08:10 10° 17° (NNE) 2,011 5.5 -8.0°
Sets 18:10:26 0° 14° (NNE) 2,922 6.4 -8.4°
